Tracking 29892 objects as of 21-Nov-2024
HD Live streaming from Space Station
objects crossing your sky now

SL-8 R/B

Track SL-8 R/B now!
10-day predictions


NORAD ID: 12792
Int'l Code: 1981-084B
Perigee: 761.3 km
Apogee: 779.5 km
Inclination: 74.0 °
Period: 100.1 minutes
Semi major axis: 7141 km
RCS: 5.0997 m2 (large)
Launch date: August 28, 1981
Source: Commonwealth of Independent States (former USSR) (CIS)
Launch site: PLESETSK MISSILE AND SPACE COMPLEX (PKMTR)

Note: This is a ROCKET BODY
Your satellite tracking list
Your tracking list is empty




NASA's NSSDC Master Catalog

Two Line Element Set (TLE):
1 12792U 81084B   24326.04545938  .00000582  00000-0  19867-3 0  9996
2 12792  74.0299  77.5396 0012711  61.3218 298.9212 14.38561424265075
Source of the keplerian elements: AFSPC